Location: Unspecified
(0.0000°N, 0.0000°E)
Time: 23:21:59
(UTC+00:00)

deb S5M - Pass Details

Date: 24 June 2024
Orbit: 775 x 867 km, 82.5° (Epoch: 14 July)

Event Time Altitude Azimuth Distance (km) Brightness Sun altitude
Exits shadow 04:25:51 38° 287° (WNW) 1,248 ? -22.1°
Drops below altitude 10° 04:30:28 10° 341° (NNW) 2,451 ? -21.0°
Sets 04:33:03 0° 349° (N) 3,397 ? -20.4°
